Weather History for Jasper, AB

Change the Weather History Date:

Thursday, September 19, 2013

  Actual Average Record
Temperature  
Mean Temperature 48 °F -  
Max Temperature 68 °F - - ()
Min Temperature 27 °F - - ()
Degree Days  
Heating Degree Days 18    
Moisture  
Dew Point 30 °F    
Average Humidity 60    
Maximum Humidity 99    
Minimum Humidity 18    
Precipitation  
Precipitation 0.00 in - - ()
Sea Level Pressure  
Sea Level Pressure 30.03 in    
Wind  
Wind Speed 3 mph ()    
Max Wind Speed 9 mph    
Max Gust Speed 21 mph    
T = Trace of Precipitation, MM = Missing Value Source: Averaged Metar Reports

Daily Weather History Graph

Daily Weather History Graph

Search for Another Location

Airport:

Trip Planner

Search our weather history database for the weather conditions in past years. The results will help you decide how hot, cold, wet, or windy it might be!

Date:

Astronomy

Sep. 19, 2013 Rise Set
Actual Time 7:33 AM MDT 7:56 PM MDT
Civil Twilight 6:58 AM MDT 8:31 PM MDT
Nautical Twilight 6:17 AM MDT 9:12 PM MDT
Astronomical Twilight 5:34 AM MDT 9:55 PM MDT
Moon 7:46 PM MDT (9/19) 7:55 AM MDT (9/19)
Length of Visible Light 13h 32m
Length of Day
12h 23m
Full, 100% of the Moon is Illuminated
Sep 19
Full
Sep 26
Last Quarter
Oct 4
New
Oct 11
First Quarter
Oct 18
Full

Hourly Weather History & Observations

Time (MDT) Temp. Windchill Dew Point Humidity Pressure Visibility Wind Dir Wind Speed Gust Speed Precip Events Conditions
12:00 AM 36 °F - 30 °F 70% 30.04 in - SSE 3.5 mph - -  
12:00 AM 35.6 °F 32.8 °F 29.7 °F 79% 30.04 in - SSE 3.5 mph - N/A   Unknown
1:00 AM 34.2 °F - 28.6 °F 80% 30.04 in - SSW 2.3 mph - N/A   Unknown
2:00 AM 31.1 °F - 27.3 °F 86% 30.06 in - SW 1.2 mph - N/A   Unknown
3:00 AM 30.4 °F - 28.2 °F 92% 30.07 in - SSW 2.3 mph - N/A   Unknown
4:00 AM 30.7 °F - 29.3 °F 94% 30.08 in - South 1.2 mph - N/A   Unknown
5:00 AM 29.1 °F 25.4 °F 27.9 °F 95% 30.09 in - South 3.5 mph - N/A   Unknown
6:00 AM 28 °F - 27 °F 94% 30.11 in - SSW 3.5 mph - -  
6:00 AM 27.5 °F 23.6 °F 27.0 °F 98% 30.11 in - SSW 3.5 mph - N/A   Unknown
7:00 AM 30.2 °F 26.7 °F 30.0 °F 99% 30.12 in - SSW 3.5 mph - N/A   Unknown
8:00 AM 32.0 °F 27.5 °F 31.3 °F 97% 30.13 in - SW 4.6 mph - N/A   Unknown
9:00 AM 35.1 °F 32.2 °F 33.1 °F 92% 30.12 in - SSW 3.5 mph - N/A   Unknown
10:00 AM 43.2 °F 41.5 °F 34.0 °F 70% 30.10 in - South 3.5 mph - N/A   Unknown
11:00 AM 50.2 °F - 33.6 °F 53% 30.07 in - South 2.3 mph - N/A   Unknown
12:00 PM 58 °F - 32 °F 26% 30.03 in - SSW 3.5 mph - -  
12:00 PM 58.1 °F - 31.6 °F 37% 30.03 in - SSW 3.5 mph - N/A   Unknown
1:00 PM 62.2 °F - 28.8 °F 28% 30.00 in - SE 4.6 mph - N/A   Unknown
2:00 PM 64.6 °F - 27.0 °F 24% 29.98 in - South 8.1 mph - N/A   Unknown
3:00 PM 64.9 °F - 26.6 °F 24% 29.97 in - South 9.2 mph 20.7 mph N/A   Unknown
4:00 PM 63.9 °F - 29.8 °F 28% 29.98 in - South 8.1 mph - N/A   Unknown
5:00 PM 64.4 °F - 29.7 °F 27% 29.97 in - SSW 5.8 mph - N/A   Unknown
6:00 PM 62 °F - 30 °F 18% 29.96 in - South 5.8 mph - -  
6:00 PM 62.4 °F - 29.8 °F 29% 29.96 in - South 5.8 mph - N/A   Unknown
7:00 PM 61.0 °F - 31.8 °F 33% 29.97 in - South 6.9 mph - N/A   Unknown
8:00 PM 55.4 °F - 30.9 °F 39% 29.97 in - SSE 2.3 mph - N/A   Unknown
9:00 PM 55.0 °F - 33.6 °F 44% 29.96 in - SSE 3.5 mph - N/A   Unknown
10:00 PM 49.8 °F - 33.6 °F 54% 29.96 in - SE 3.5 mph - N/A   Unknown
11:00 PM 48.7 °F - 34.3 °F 58% 29.94 in - SE 3.5 mph - N/A   Unknown